sat.trackr.live / text

‹ back to catalog

UNKNOWN

NORAD 82873

UNKNOWN UNKNOWN UNKNOWN

§ Identity

Operator
Country
Launch date
Launch site
Launch vehicle
Mass (kg)
RCS (m²)

External: N2YO · Heavens-Above

§ Orbital elements

Epoch: 2026-09-16T07:01:49.015488Z

Period
100.97 min
Inclination
99.9917°
Eccentricity
0.0036401
Mean motion
14.26174832 rev/d
Perigee alt
778.4 km
Apogee alt
830.7 km
Semi-major
7,182.7 km
B*
9.3630e-4
RAAN
196.8198°
Arg perigee
232.1341°
Mean anomaly
127.6539°
Rev number
66,077

§ Raw data

UNKNOWN1 82873U          26259.29292842  .00002202  00000+0  93630-3 0  99992 82873  99.9917 196.8198 0036401 232.1341 127.6539 14.26174832660773

JSON: /api/v1/satellites/82873 · /tle

For live sub-satellite position, see the globe view (requires WebGL).

§ Visibility from observer

Set your observer location to see the next 7 days of passes ≥ 10°. The values pass through the URL so the page stays shareable.

No JS? Fill the form by hand. The geolocation button needs JavaScript.